Total_Precipitation_Accumulation
0.73 0.65 0.57 0.49 0.47 0.46 0.49 0.63 1.02 1.46 1.89 2.32 2.45 2.59 2.82 2.94 2.83 2.60 2.22 1.98 1.87 1.76 1.68 1.59 1.46 1.39 1.29 1.22 1.12 1.08 1.04 1.07 1.10 1.08 1.05 1.01 1.06 1.11 1.13 1.11 1.02 0.98 0.91 0.84
0.72 0.57 0.62 0.60 0.61 0.63 0.60 0.66 0.97 1.42 2.08 2.38 2.58 2.73 2.79 2.73 2.76 2.71 2.35 2.11 1.98 1.84 1.74 1.71 1.59 1.51 1.41 1.32 1.25 1.15 1.07 1.09 1.07 1.07 1.03 1.00 1.00 1.03 1.00 0.96 0.96 0.92 0.84 0.76
1.08 0.66 0.87 1.20 0.98 0.84 0.86 0.89 1.10 1.50 1.90 2.06 2.23 2.38 2.64 2.78 2.70 2.67 2.42 2.19 2.05 2.00 1.96 1.89 1.83 1.73 1.57 1.40 1.33 1.13 1.02 1.01 0.99 0.98 0.95 0.93 0.88 0.88 0.90 0.96 0.96 0.90 0.81 0.77
1.10 1.23 1.68 1.41 0.91 0.79 0.94 1.01 1.02 1.21 1.34 1.59 1.78 2.02 2.32 2.51 2.68 2.72 2.52 2.36 2.22 2.07 2.01 1.95 1.85 1.71 1.52 1.31 1.15 1.00 0.94 0.93 0.88 0.86 0.85 0.88 0.83 0.82 0.87 0.92 0.91 0.90 0.87 0.90
1.30 1.60 1.69 1.36 0.86 0.77 1.10 1.30 1.00 1.05 1.11 1.16 1.25 1.54 2.05 2.16 2.28 2.41 2.43 2.37 2.24 2.06 1.96 1.87 1.66 1.50 1.38 1.16 1.04 0.98 0.91 0.89 0.80 0.73 0.80 0.82 0.79 0.79 0.85 0.84 0.84 0.83 0.86 0.93
1.36 1.79 2.08 1.69 0.79 0.54 0.92 1.76 1.23 1.10 1.17 1.18 1.35 1.72 1.80 1.64 1.70 1.83 1.97 2.07 2.02 1.85 1.74 1.68 1.49 1.32 1.27 1.13 1.00 0.94 0.87 0.84 0.78 0.75 0.78 0.82 0.85 0.83 0.77 0.79 0.76 0.71 0.77 0.88
1.45 1.80 1.84 1.02 0.62 0.76 1.64 2.01 1.38 1.12 1.20 1.38 1.65 1.65 1.33 1.15 1.31 1.46 1.57 1.71 1.71 1.62 1.60 1.50 1.31 1.25 1.31 1.26 1.09 0.89 0.79 0.77 0.80 0.81 0.76 0.73 0.77 0.79 0.76 0.69 0.72 0.72 0.74 0.81
1.55 1.97 1.97 0.84 0.72 1.26 1.48 1.15 1.03 1.03 1.09 1.12 1.15 1.06 0.96 0.97 1.09 1.17 1.29 1.38 1.47 1.54 1.50 1.40 1.29 1.27 1.29 1.25 1.03 0.87 0.84 0.85 0.82 0.76 0.64 0.60 0.71 0.73 0.71 0.72 0.75 0.78 0.79 0.82
1.53 1.81 1.39 0.80 0.77 0.81 0.80 0.92 0.92 0.96 0.97 0.90 0.93 0.95 0.89 0.94 1.07 1.16 1.20 1.23 1.28 1.35 1.35 1.30 1.24 1.25 1.24 1.14 0.94 0.87 0.93 0.91 0.85 0.74 0.66 0.65 0.70 0.71 0.69 0.70 0.68 0.66 0.68 0.73
1.14 1.18 1.05 0.92 0.81 0.77 0.80 0.83 0.85 0.90 0.89 0.84 0.85 0.84 0.85 0.97 1.08 1.14 1.11 1.11 1.18 1.25 1.25 1.21 1.12 1.11 1.11 0.99 0.94 0.97 0.95 0.87 0.83 0.76 0.68 0.62 0.61 0.58 0.62 0.65 0.66 0.65 0.63 0.64
1.22 1.22 1.15 1.12 0.98 0.91 0.93 0.92 0.88 0.91 0.94 0.85 0.79 0.83 0.85 0.97 1.00 1.03 1.04 1.03 1.07 1.19 1.19 1.07 0.97 0.91 0.87 0.92 0.97 1.01 0.94 0.80 0.72 0.66 0.63 0.62 0.56 0.50 0.51 0.55 0.56 0.56 0.51 0.47
1.25 1.16 1.17 1.14 0.97 0.92 1.07 1.13 1.01 0.97 0.91 0.82 0.78 0.81 0.80 0.82 0.85 0.86 0.90 0.94 1.00 1.00 1.00 0.92 0.85 0.83 0.77 0.81 0.87 0.87 0.81 0.70 0.60 0.54 0.52 0.46 0.46 0.45 0.42 0.41 0.42 0.43 0.42 0.36
0.85 0.79 0.84 0.86 0.84 0.94 1.09 1.08 0.95 0.86 0.79 0.77 0.70 0.74 0.80 0.77 0.78 0.79 0.78 0.78 0.83 0.81 0.81 0.81 0.77 0.76 0.71 0.72 0.75 0.75 0.72 0.65 0.55 0.49 0.47 0.41 0.42 0.49 0.51 0.41 0.36 0.36 0.35 0.33
0.77 0.78 0.94 0.95 0.89 0.83 0.91 0.92 0.83 0.68 0.70 0.77 0.74 0.69 0.74 0.69 0.68 0.71 0.77 0.71 0.66 0.66 0.67 0.63 0.63 0.67 0.67 0.65 0.68 0.66 0.59 0.53 0.49 0.47 0.44 0.43 0.42 0.44 0.48 0.53 0.52 0.42 0.29 0.26
0.82 0.75 0.86 0.83 0.72 0.66 0.68 0.74 0.74 0.67 0.69 0.73 0.71 0.67 0.65 0.69 0.69 0.67 0.71 0.63 0.58 0.63 0.67 0.57 0.55 0.60 0.61 0.58 0.59 0.55 0.52 0.51 0.50 0.48 0.45 0.42 0.41 0.43 0.45 0.49 0.53 0.49 0.39 0.30
0.82 0.66 0.64 0.63 0.61 0.59 0.60 0.61 0.62 0.61 0.59 0.58 0.53 0.55 0.56 0.59 0.64 0.61 0.63 0.62 0.63 0.66 0.68 0.61 0.58 0.56 0.57 0.60 0.58 0.53 0.48 0.44 0.45 0.45 0.45 0.44 0.42 0.43 0.47 0.50 0.53 0.52 0.44 0.38
0.85 0.75 0.67 0.62 0.57 0.54 0.54 0.57 0.54 0.49 0.50 0.47 0.44 0.43 0.45 0.51 0.58 0.58 0.57 0.57 0.63 0.66 0.62 0.56 0.51 0.45 0.46 0.51 0.51 0.47 0.43 0.40 0.38 0.37 0.37 0.37 0.36 0.38 0.44 0.51 0.52 0.51 0.43 0.40
0.76 0.69 0.61 0.57 0.51 0.46 0.44 0.44 0.46 0.43 0.47 0.41 0.35 0.37 0.42 0.53 0.57 0.51 0.49 0.52 0.58 0.64 0.62 0.52 0.46 0.42 0.41 0.44 0.47 0.46 0.40 0.36 0.30 0.30 0.30 0.32 0.35 0.36 0.40 0.43 0.44 0.46 0.44 0.41
0.62 0.52 0.42 0.40 0.40 0.39 0.38 0.38 0.40 0.40 0.39 0.36 0.33 0.37 0.41 0.51 0.50 0.40 0.40 0.47 0.57 0.64 0.61 0.50 0.47 0.45 0.47 0.50 0.47 0.43 0.38 0.34 0.28 0.26 0.28 0.33 0.36 0.40 0.43 0.45 0.46 0.46 0.43 0.41
0.52 0.42 0.35 0.32 0.31 0.30 0.31 0.31 0.37 0.41 0.37 0.33 0.34 0.35 0.38 0.46 0.45 0.38 0.40 0.46 0.50 0.53 0.54 0.52 0.45 0.42 0.45 0.45 0.41 0.36 0.34 0.34 0.33 0.29 0.33 0.40 0.40 0.38 0.40 0.43 0.44 0.46 0.44 0.42
0.46 0.35 0.31 0.32 0.31 0.30 0.29 0.31 0.33 0.35 0.38 0.38 0.41 0.42 0.40 0.43 0.46 0.45 0.47 0.48 0.44 0.43 0.46 0.50 0.47 0.47 0.44 0.40 0.33 0.28 0.29 0.32 0.34 0.33 0.35 0.40 0.40 0.40 0.42 0.43 0.45 0.50 0.49 0.46
0.41 0.35 0.31 0.29 0.31 0.32 0.30 0.33 0.35 0.34 0.37 0.38 0.38 0.40 0.41 0.46 0.46 0.46 0.49 0.54 0.47 0.44 0.42 0.45 0.48 0.48 0.44 0.41 0.33 0.27 0.27 0.32 0.34 0.35 0.38 0.40 0.42 0.43 0.45 0.46 0.45 0.43 0.44 0.47
0.39 0.36 0.37 0.38 0.37 0.35 0.32 0.36 0.39 0.36 0.37 0.36 0.33 0.35 0.40 0.44 0.45 0.45 0.50 0.47 0.40 0.41 0.43 0.43 0.44 0.45 0.42 0.41 0.39 0.33 0.30 0.31 0.35 0.40 0.41 0.39 0.40 0.43 0.43 0.43 0.43 0.42 0.43 0.45
0.42 0.41 0.41 0.42 0.41 0.39 0.41 0.44 0.44 0.41 0.39 0.37 0.36 0.38 0.39 0.41 0.41 0.36 0.39 0.40 0.38 0.41 0.40 0.37 0.33 0.30 0.30 0.33 0.38 0.39 0.40 0.38 0.36 0.36 0.39 0.39 0.39 0.39 0.40 0.42 0.44 0.44 0.44 0.41
0.47 0.47 0.49 0.49 0.54 0.56 0.54 0.49 0.44 0.41 0.39 0.39 0.34 0.34 0.36 0.38 0.38 0.34 0.33 0.32 0.31 0.31 0.29 0.27 0.24 0.24 0.23 0.25 0.30 0.36 0.42 0.45 0.41 0.37 0.37 0.40 0.39 0.37 0.40 0.44 0.47 0.47 0.44 0.42
0.57 0.54 0.53 0.54 0.55 0.57 0.54 0.48 0.42 0.42 0.42 0.44 0.43 0.38 0.37 0.37 0.35 0.33 0.31 0.29 0.27 0.24 0.22 0.23 0.24 0.25 0.24 0.25 0.28 0.33 0.38 0.41 0.39 0.39 0.41 0.42 0.41 0.40 0.42 0.45 0.48 0.47 0.44 0.43
0.66 0.64 0.63 0.58 0.53 0.53 0.53 0.53 0.51 0.48 0.44 0.40 0.39 0.37 0.37 0.37 0.37 0.35 0.32 0.29 0.26 0.24 0.23 0.24 0.24 0.24 0.23 0.24 0.27 0.31 0.36 0.38 0.38 0.43 0.44 0.44 0.46 0.46 0.47 0.48 0.52 0.53 0.50 0.46